Regional Weather Roundup
Issued by NWS Burlington, VT

Home | Current Version | Previous Version | Text Only | Print | Product List | Glossary On
Versions: 1 2 3 4 5 6 7 8 9 10 11 12 13 14 15 16 17 18 19 20 21 22 23 24 25 26 27 28 29 30 31 32 33 34 35 36 37 38 39 40 41 42 43 44 45 46 47 48 49 50
000
ASUS41 KBTV 300330
RWRBTV
VERMONT REGIONAL WEATHER ROUNDUP
NATIONAL WEATHER SERVICE BURLINGTON VT
1100 PM EDT FRI MAY 29 2015

NOTE: "FAIR" INDICATES FEW OR NO CLOUDS BELOW 12,000 FEET WITH NO
SIGNIFICANT WEATHER AND/OR OBSTRUCTIONS TO VISIBILITY.

* THESE REPORTS ARE NOT UNDER NWS QUALITY CONTROL AND/OR DO NOT
  REPORT WEATHER SUCH AS PRECIPITATION AND FOG.

VTZ001>019-300400-
_____VERMONT_____


CITY           SKY/WX    TMP DP  RH WIND       PRES   REMARKS
BURLINGTON     PTCLDY    70  55  59 S9        30.14S
MONTPELIER     MOCLDY    64  56  75 S6        30.22F
MORRISVILLE      N/A     62  57  83 S5        30.18F
ST. JOHNSBURY*   N/A     65  56  72 MISG      30.17R
LYNDONVILLE*     N/A     65  55  69 SE7       30.20F
MIDDLEBURY*      N/A     68  58  71 S5        30.17S
RUTLAND*       MOCLDY    64  55  72 SE8       30.20S
SPRINGFIELD    MOCLDY    62  58  86 W3        30.21S
HIGHGATE*        N/A     69  54  59 S3        30.11S
NEWPORT*         N/A     59  57  92 SW3       30.17S
BENNINGTON     MOCLDY    66  59  78 CALM      30.20F
SUTTON*          N/A     64 N/A N/A MISG        N/A
GALLUP MILLS*    N/A     54 N/A N/A MISG        N/A
MT. MANSFIELD*   N/A     57 N/A N/A CALM        N/A

_____LAKE CHAMPLAIN_____


CITY           SKY/WX    TMP DP  RH WIND       PRES   REMARKS
BURTON ISLAND*   N/A     68  57  68 S7          N/A
COLCHESTER RF*   N/A     63  55  77 S13         N/A
DIAMOND ISL*     N/A     70  55  60 SW10        N/A

$$

NYZ007-026>031-035-052-083-300400-
_____NORTHERN NEW YORK_____


CITY           SKY/WX    TMP DP  RH WIND       PRES   REMARKS
PLATTSBURGH    PTCLDY    59  56  89 CALM      30.11F
SARANAC LAKE   CLEAR     54  51  90 CALM      30.16F
MASSENA        PTCLDY    59  56  89 CALM      30.09F
OGDENSBURG*    CLEAR     64  57  77 CALM      30.07F
POTSDAM*       CLEAR     68  55  64 S8        30.08F
STARK FALLS*     N/A     68 N/A N/A SE13        N/A
WATERTOWN      MOCLDY    74  52  46 S8        30.06F
FT DRUM        PTCLDY    70  55  60 SE12      30.08
ALBANY         MOCLDY    74  54  49 S9        30.18S
GLENS FALLS    MOCLDY    63  56  78 CALM      30.17F

$$
NHZ002-005-011-300400-
_____NEW HAMPSHIRE_____


CITY           SKY/WX    TMP DP  RH WIND       PRES   REMARKS
LEBANON        MOCLDY    63  58  83 SE3       30.19F
KEENE          MOCLDY    63  59  88 CALM      30.22F
MT WASHINGTON  FOG       48  48 100 SW28        N/A  VSB 1/16
PLYMOUTH       CLOUDY    65  63  93 CALM      30.22S
WHITEFIELD     CLOUDY    63  57  81 CALM      30.21R

$$

_____REGIONAL QUEBEC LOCATIONS_____


CITY           SKY/WX    TMP DP  RH WIND       PRES   REMARKS
MONTREAL       PTCLDY    68  54  60 SE7       30.07F
QUEBEC CITY    PTCLDY    59  54  82 CALM      30.10F
SHERBROOKE     CLEAR     59 N/A N/A E5        30.14F

_____REGIONAL ONTARIO LOCATIONS_____


CITY           SKY/WX    TMP DP  RH WIND       PRES   REMARKS
OTTAWA         MOCLDY    63  57  82 SE5       30.07F

______KEY______
VSB  - VISIBILITY IN MILES
WCI  - WIND CHILL INDEX
HX   - HEAT INDEX
$$
NNNN



USA.gov is the U.S. government's official web portal to all federal, state and local government web resources and services.